Weather History for Louisville, KY

Change the Weather History Date:

Tuesday, November 12, 2013

  Actual Average Record
Temperature  
Mean Temperature 37 °F 50 °F  
Max Temperature 44 °F 60 °F 78 °F (1879)
Min Temperature 30 °F 41 °F 17 °F (1894)
Degree Days  
Heating Degree Days 28 15  
Month to date heating degree days 177 154  
Since 1 July heating degree days 410 396  
Cooling Degree Days 0 0  
Month to date cooling degree days 0 0  
Year to date cooling degree days 1628 1609  
Moisture  
Dew Point 25 °F    
Average Humidity 63    
Maximum Humidity 89    
Minimum Humidity 37    
Precipitation  
Precipitation 0.05 in 0.11 in 1.78 in (2003)
Month to date precipitation 0.32 1.30  
Year to date precipitation 44.77 38.79  
Snow  
Snow 0.30 in 0.00 in T in (1991)
Month to date snowfall 0.3 0.0  
Since 1 July snowfall 0.3 0.1  
Since 1 September snowfall 0.3 0.1  
Snow Depth T in    
Sea Level Pressure  
Sea Level Pressure 30.48 in    
Wind  
Wind Speed 14 mph (North)    
Max Wind Speed 25 mph    
Max Gust Speed 31 mph    
Visibility 8 miles    
Events Rain , Snow    
T = Trace of Precipitation, MM = Missing Value Source: NWS Daily Summary

Daily Weather History Graph

Daily Weather History Graph

Search for Another Location

Airport:

Trip Planner

Search our weather history database for the weather conditions in past years. The results will help you decide how hot, cold, wet, or windy it might be!

Date:

Astronomy

Nov. 12, 2013 Rise Set
Actual Time 7:21 AM EST 5:32 PM EST
Civil Twilight 6:53 AM EST 6:00 PM EST
Nautical Twilight 6:21 AM EST 6:32 PM EST
Astronomical Twilight 5:50 AM EST 7:03 PM EST
Moon 2:42 PM EST (11/12) 2:14 AM EST (11/12)
Length of Visible Light 11h 07m
Length of Day
10h 11m
Waxing Gibbous, 76% of the Moon is Illuminated
Nov 12
Waxing Gibbous
Nov 17
Full
Nov 25
Last Quarter
Dec 2
New
Dec 9
First Quarter

Hourly Weather History & Observations

Time (EST) Temp. Windchill Dew Point Humidity Pressure Visibility Wind Dir Wind Speed Gust Speed Precip Events Conditions
12:01 AM 44.6 °F 36.1 °F 41.0 °F 87% 30.24 in 9.0 mi North 21.9 mph 29.9 mph 0.00 in Rain Light Rain
12:43 AM 42.8 °F 33.5 °F 39.2 °F 87% 30.26 in 8.0 mi North 23.0 mph 27.6 mph 0.00 in Rain Light Rain
12:56 AM 41.0 °F 32.2 °F 37.9 °F 89% 30.27 in 10.0 mi North 18.4 mph 23.0 mph 0.00 in   Light Drizzle
1:12 AM 39.2 °F 28.7 °F 35.6 °F 87% 30.28 in 6.0 mi North 23.0 mph 31.1 mph 0.00 in Rain Rain
1:56 AM 37.9 °F 27.9 °F 35.1 °F 89% 30.31 in 10.0 mi North 19.6 mph 26.5 mph 0.02 in Rain Light Rain
2:45 AM 33.8 °F 22.5 °F 32.0 °F 93% 30.33 in 2.5 mi North 19.6 mph - 0.01 in Snow Light Snow
2:50 AM 33.8 °F 23.2 °F 32.0 °F 93% 30.33 in 1.8 mi North 17.3 mph - 0.01 in Snow Light Snow
2:56 AM 34.0 °F 23.8 °F 32.0 °F 92% 30.34 in 1.8 mi North 16.1 mph 24.2 mph 0.01 in Snow Light Snow
3:00 AM 33.8 °F 23.5 °F 32.0 °F 93% 30.34 in 2.0 mi North 16.1 mph - 0.01 in Snow Light Snow
3:08 AM 33.8 °F 23.2 °F 32.0 °F 93% 30.35 in 3.0 mi North 17.3 mph - 0.01 in Snow Light Snow
3:20 AM 33.8 °F 23.2 °F 30.2 °F 87% 30.35 in 3.0 mi North 17.3 mph - 0.01 in Snow Light Snow
3:23 AM 33.8 °F 23.5 °F 30.2 °F 87% 30.35 in 2.5 mi North 16.1 mph 25.3 mph 0.01 in Snow Light Snow
3:42 AM 33.8 °F 24.8 °F 30.2 °F 87% 30.36 in 1.8 mi North 12.7 mph 21.9 mph 0.02 in Snow Light Snow
3:56 AM 33.1 °F 22.2 °F 30.9 °F 92% 30.38 in 3.0 mi NNE 17.3 mph 25.3 mph 0.02 in Snow Light Snow
4:11 AM 33.8 °F 23.2 °F 30.2 °F 87% 30.37 in 9.0 mi North 17.3 mph 28.8 mph 0.00 in Snow Light Snow
4:56 AM 33.1 °F 20.6 °F 26.1 °F 75% 30.41 in 9.0 mi North 23.0 mph 29.9 mph 0.00 in Snow Light Snow
5:56 AM 33.1 °F 23.4 °F 25.0 °F 72% 30.45 in 10.0 mi North 13.8 mph 24.2 mph 0.00 in   Overcast
6:56 AM 32.0 °F 21.2 °F 25.0 °F 75% 30.48 in 10.0 mi NNE 16.1 mph 20.7 mph N/A   Mostly Cloudy
7:56 AM 30.9 °F 19.8 °F 21.9 °F 69% 30.52 in 10.0 mi North 16.1 mph 23.0 mph N/A   Mostly Cloudy
8:56 AM 32.0 °F 21.6 °F 21.0 °F 64% 30.56 in 10.0 mi North 15.0 mph - N/A   Scattered Clouds
9:56 AM 34.0 °F 23.4 °F 19.9 °F 56% 30.58 in 10.0 mi NNE 17.3 mph 26.5 mph N/A   Scattered Clouds
10:56 AM 36.0 °F 26.3 °F 18.0 °F 48% 30.59 in 10.0 mi North 16.1 mph 24.2 mph N/A   Scattered Clouds
11:56 AM 37.0 °F 27.0 °F 16.0 °F 42% 30.58 in 10.0 mi North 18.4 mph 23.0 mph N/A   Scattered Clouds
12:56 PM 39.0 °F 29.3 °F 15.1 °F 38% 30.58 in 10.0 mi North 19.6 mph 25.3 mph N/A   Scattered Clouds
1:56 PM 39.0 °F 29.9 °F 16.0 °F 39% 30.58 in 10.0 mi North 17.3 mph 25.3 mph N/A   Scattered Clouds
2:56 PM 39.9 °F 32.1 °F 15.1 °F 36% 30.59 in 10.0 mi North 13.8 mph 23.0 mph N/A   Partly Cloudy
3:56 PM 39.0 °F 29.9 °F 15.1 °F 38% 30.60 in 10.0 mi NNW 17.3 mph 26.5 mph N/A   Partly Cloudy
4:56 PM 37.9 °F 29.6 °F 16.0 °F 41% 30.61 in 10.0 mi North 13.8 mph - N/A   Scattered Clouds
5:56 PM 36.0 °F 29.6 °F 16.0 °F 44% 30.61 in 10.0 mi North 8.1 mph - N/A   Scattered Clouds
6:56 PM 35.1 °F 28.6 °F 18.0 °F 50% 30.62 in 10.0 mi North 8.1 mph - N/A   Scattered Clouds
7:56 PM 34.0 °F 28.8 °F 18.0 °F 52% 30.62 in 10.0 mi North 5.8 mph - N/A   Partly Cloudy
8:56 PM 34.0 °F 26.0 °F 21.0 °F 59% 30.64 in 10.0 mi North 10.4 mph - N/A   Partly Cloudy
9:56 PM 33.1 °F 24.4 °F 21.0 °F 61% 30.66 in 10.0 mi North 11.5 mph - N/A   Clear
10:56 PM 30.9 °F 24.3 °F 21.0 °F 67% 30.67 in 10.0 mi North 6.9 mph - N/A   Clear
11:56 PM 30.9 °F 25.2 °F 21.0 °F 67% 30.66 in 10.0 mi North 5.8 mph - N/A   Clear